Weather Roundup
Issued by NWS Springfield, MO

Home | Current Version | Previous Version | Text Only | Print | Product List | Glossary On
Versions: 1 2 3 4 5 6 7 8 9 10 11 12 13 14 15 16 17 18 19 20 21 22 23 24 25 26 27 28 29 30 31 32 33 34 35 36 37 38 39 40 41 42 43 44 45 46 47 48 49 50
753
NZUS99 KSGF 111057
HRRSGF

HOURLY WEATHER
NATIONAL WEATHER SERVICE SPRINGFIELD MO
500 AM CST SUN DEC 11 2016

......SGF CWA......

CITY           SKY/WX    TMP DP  RH WIND       PRES   REMARKS
SPRINGFIELD    CLOUDY    43  26  51 S15       29.87F
JOPLIN         CLOUDY    47  31  53 S20G30    29.84F
WEST PLAINS    CLOUDY    39  23  52 S15G23    30.01F WCI  31
ROLLA          CLOUDY    39  20  46 S18       29.93F WCI  30

......SURROUNDING SGF CWA......

CITY           SKY/WX    TMP DP  RH WIND       PRES   REMARKS
CHANUTE        CLOUDY    46  34  62 S22G29    29.77F
PARSONS        CLOUDY    47  35  63 S14G29    29.81F
COFFEYVILLE    CLOUDY    47  35  63 S16G28    29.80F
EMPORIA        CLOUDY    44  36  73 S15G24    29.72F
HARRISON AR    CLOUDY    43  24  47 S22G41    29.94F

......KANSAS AND MISSOURI......

CITY           SKY/WX    TMP DP  RH WIND       PRES   REMARKS
KANSAS CTY INT CLOUDY    40  25  55 SE8       29.79F WCI  34
SEDALIA        CLOUDY    43  26  51 S15       29.88F
ST JOSEPH      CLOUDY    37  24  59 SE9       29.79F WCI  30
ST LOUIS       CLOUDY    40  17  39 SE10      30.01F WCI  33
WICHITA        CLOUDY    49  44  83 S16       29.66F
TOPEKA         CLOUDY    43  34  70 SE6       29.76F
OLATHE         CLOUDY    41  30  65 S9        29.79F

......TENNESSEE......

CITY           SKY/WX    TMP DP  RH WIND       PRES   REMARKS
MEMPHIS        NOT AVBL
NASHVILLE      CLOUDY    31  18  58 S6        30.29F WCI  25

......ARKANSAS.......

CITY           SKY/WX    TMP DP  RH WIND       PRES   REMARKS
FAYETTEVILLE   CLOUDY    44  28  53 S16G23    29.91F
FT SMITH       CLOUDY    50  31  48 SE6       29.97F
LITTLE ROCK    CLOUDY    42  30  62 SE3       30.14F

......OKLAHOMA.......

CITY           SKY/WX    TMP DP  RH WIND       PRES   REMARKS
TULSA          CLOUDY    49  37  63 S20G32    29.83F
PONCA CITY     CLOUDY    51  44  77 S15G31    29.72F
MCALESTER      CLOUDY    49  32  52 S14G22    29.93F
OKLAHOMA CITY  CLOUDY    50  48  93 S25G35    29.78F

......IOWA............

CITY           SKY/WX    TMP DP  RH WIND       PRES   REMARKS
DES MOINES     NOT AVBL
QUAD CITIES    CLOUDY    29  22  75 E8        29.99F WCI  21

......ILLINOIS........

CITY           SKY/WX    TMP DP  RH WIND       PRES   REMARKS
QUINCY         CLOUDY    35  19  52 SE8       29.95F WCI  29
CHICAGO        LGT SNOW  25  22  88 SE13      30.11F FOG     WCI  14




USA.gov is the U.S. government's official web portal to all federal, state and local government web resources and services.